Year,Month,Day,Hour,Minute,Value (Times are PST for temperature in C)
2007,04,17,00,00,5.40
2007,04,17,00,01,5.40
2007,04,17,00,02,5.40
2007,04,17,00,03,5.40
2007,04,17,00,04,5.30
2007,04,17,00,05,5.30
2007,04,17,00,06,5.30
2007,04,17,00,07,5.30
2007,04,17,00,08,5.30
2007,04,17,00,09,5.30
2007,04,17,00,10,5.30
2007,04,17,00,11,5.30
2007,04,17,00,12,5.30
2007,04,17,00,13,5.40
2007,04,17,00,14,5.40
2007,04,17,00,15,5.40
2007,04,17,00,16,5.40
2007,04,17,00,17,5.40
2007,04,17,00,18,5.40
2007,04,17,00,19,5.30
2007,04,17,00,20,5.30
2007,04,17,00,21,5.30
2007,04,17,00,22,5.30
2007,04,17,00,23,5.30
2007,04,17,00,24,5.30
2007,04,17,00,25,5.30
2007,04,17,00,26,5.30
2007,04,17,00,27,5.30
2007,04,17,00,28,5.30
2007,04,17,00,29,5.30
2007,04,17,00,30,5.30
2007,04,17,00,31,5.30
2007,04,17,00,32,5.30
2007,04,17,00,33,5.30
2007,04,17,00,34,5.30
2007,04,17,00,35,5.30
2007,04,17,00,36,5.30
2007,04,17,00,37,5.30
2007,04,17,00,38,5.20
2007,04,17,00,39,5.30
2007,04,17,00,40,5.30
2007,04,17,00,41,5.30
2007,04,17,00,42,5.20
2007,04,17,00,43,5.20
2007,04,17,00,44,5.20
2007,04,17,00,45,5.10
2007,04,17,00,46,5.10
2007,04,17,00,47,5.10
2007,04,17,00,48,5.10
2007,04,17,00,49,5.10
2007,04,17,00,50,5.10
2007,04,17,00,51,5.10
2007,04,17,00,52,5.10
2007,04,17,00,53,5.10
2007,04,17,00,54,5.10
2007,04,17,00,55,5.10
2007,04,17,00,56,5.10
2007,04,17,00,57,5.10
2007,04,17,00,58,5.10
2007,04,17,00,59,5.10
2007,04,17,01,00,5.10
2007,04,17,01,01,5.10
2007,04,17,01,02,5.10
2007,04,17,01,03,5.10
2007,04,17,01,04,5.10
2007,04,17,01,05,5.10
2007,04,17,01,06,5.10
2007,04,17,01,07,5.10
2007,04,17,01,08,4.90
2007,04,17,01,09,4.90
2007,04,17,01,10,4.90
2007,04,17,01,11,4.90
2007,04,17,01,12,4.90
2007,04,17,01,13,4.90
2007,04,17,01,14,4.90
2007,04,17,01,15,4.90
2007,04,17,01,16,4.90
2007,04,17,01,17,4.90
2007,04,17,01,18,4.90
2007,04,17,01,19,4.80
2007,04,17,01,20,4.80
2007,04,17,01,21,4.80
2007,04,17,01,22,4.80
2007,04,17,01,23,4.80
2007,04,17,01,24,4.80
2007,04,17,01,25,4.80
2007,04,17,01,26,4.80
2007,04,17,01,27,4.80
2007,04,17,01,28,4.80
2007,04,17,01,29,4.80
2007,04,17,01,30,4.70
2007,04,17,01,31,4.70
2007,04,17,01,32,4.80
2007,04,17,01,33,4.70
2007,04,17,01,34,4.70
2007,04,17,01,35,4.80
2007,04,17,01,36,4.70
2007,04,17,01,37,4.70
2007,04,17,01,38,4.70
2007,04,17,01,39,4.70
2007,04,17,01,40,4.70
2007,04,17,01,41,4.70
2007,04,17,01,42,4.70
2007,04,17,01,43,4.70
2007,04,17,01,44,4.70
2007,04,17,01,45,4.60
2007,04,17,01,46,4.60
2007,04,17,01,47,4.60
2007,04,17,01,48,4.60
2007,04,17,01,49,4.60
2007,04,17,01,50,4.60
2007,04,17,01,51,4.60
2007,04,17,01,52,4.60
2007,04,17,01,53,4.60
2007,04,17,01,54,4.60
2007,04,17,01,55,4.50
2007,04,17,01,56,4.50
2007,04,17,01,57,4.50
2007,04,17,01,58,4.50
2007,04,17,01,59,4.50
2007,04,17,02,00,4.50
2007,04,17,02,01,4.50
2007,04,17,02,02,4.50
2007,04,17,02,03,4.50
2007,04,17,02,04,4.40
2007,04,17,02,05,4.40
2007,04,17,02,06,4.40
2007,04,17,02,07,4.40
2007,04,17,02,08,4.40
2007,04,17,02,09,4.40
2007,04,17,02,10,4.40
2007,04,17,02,11,4.40
2007,04,17,02,12,4.40
2007,04,17,02,13,4.40
2007,04,17,02,14,4.40
2007,04,17,02,15,4.40
2007,04,17,02,16,4.40
2007,04,17,02,17,4.40
2007,04,17,02,18,4.40
2007,04,17,02,19,4.40
2007,04,17,02,20,4.40
2007,04,17,02,21,4.40
2007,04,17,02,22,4.40
2007,04,17,02,23,4.40
2007,04,17,02,24,4.40
2007,04,17,02,25,4.40
2007,04,17,02,26,4.40
2007,04,17,02,27,4.40
2007,04,17,02,28,4.40
2007,04,17,02,29,4.40
2007,04,17,02,30,4.40
2007,04,17,02,31,4.40
2007,04,17,02,32,4.40
2007,04,17,02,33,4.40
2007,04,17,02,34,4.40
2007,04,17,02,35,4.40
2007,04,17,02,36,4.40
2007,04,17,02,37,4.40
2007,04,17,02,38,4.40
2007,04,17,02,39,4.30
2007,04,17,02,40,4.40
2007,04,17,02,41,4.40
2007,04,17,02,42,4.40
2007,04,17,02,43,4.40
2007,04,17,02,44,4.40
2007,04,17,02,45,4.40
2007,04,17,02,46,4.40
2007,04,17,02,47,4.40
2007,04,17,02,48,4.40
2007,04,17,02,49,4.40
2007,04,17,02,50,4.40
2007,04,17,02,51,4.40
2007,04,17,02,52,4.40
2007,04,17,02,53,4.40
2007,04,17,02,54,4.40
2007,04,17,02,55,4.40
2007,04,17,02,56,4.40
2007,04,17,02,57,4.40
2007,04,17,02,58,4.40
2007,04,17,02,59,4.40
2007,04,17,03,00,4.40
2007,04,17,03,01,4.40
2007,04,17,03,02,4.40
2007,04,17,03,03,4.40
2007,04,17,03,04,4.40
2007,04,17,03,05,4.40
2007,04,17,03,06,4.40
2007,04,17,03,07,4.40
2007,04,17,03,08,4.40
2007,04,17,03,09,4.40
2007,04,17,03,10,4.40
2007,04,17,03,11,4.40
2007,04,17,03,12,4.40
2007,04,17,03,13,4.40
2007,04,17,03,14,4.40
2007,04,17,03,15,4.40
2007,04,17,03,16,4.40
2007,04,17,03,17,4.40
2007,04,17,03,18,4.40
2007,04,17,03,19,4.40
2007,04,17,03,20,4.40
2007,04,17,03,21,4.40
2007,04,17,03,22,4.40
2007,04,17,03,23,4.40
2007,04,17,03,24,4.40
2007,04,17,03,25,4.40
2007,04,17,03,26,4.40
2007,04,17,03,27,4.40
2007,04,17,03,28,4.40
2007,04,17,03,29,4.40
2007,04,17,03,30,4.40
2007,04,17,03,31,4.40
2007,04,17,03,32,4.40
2007,04,17,03,33,4.40
2007,04,17,03,34,4.40
2007,04,17,03,35,4.40
2007,04,17,03,36,4.40
2007,04,17,03,37,4.40
2007,04,17,03,38,4.40
2007,04,17,03,39,4.40
2007,04,17,03,40,4.40
2007,04,17,03,41,4.40
2007,04,17,03,42,4.40
2007,04,17,03,43,4.40
2007,04,17,03,44,4.40
2007,04,17,03,45,4.40
2007,04,17,03,46,4.40
2007,04,17,03,47,4.40
2007,04,17,03,48,4.50
2007,04,17,03,49,4.50
2007,04,17,03,50,4.50
2007,04,17,03,51,4.50
2007,04,17,03,52,4.50
2007,04,17,03,53,4.50
2007,04,17,03,54,4.50
2007,04,17,03,55,4.50
2007,04,17,03,56,4.50
2007,04,17,03,57,4.50
2007,04,17,03,58,4.50
2007,04,17,03,59,4.50
2007,04,17,04,00,4.50
2007,04,17,04,01,4.50
2007,04,17,04,02,4.50
2007,04,17,04,03,4.50
2007,04,17,04,04,4.40
2007,04,17,04,05,4.40
2007,04,17,04,06,4.40
2007,04,17,04,07,4.40
2007,04,17,04,08,4.40
2007,04,17,04,09,4.40
2007,04,17,04,10,4.40
2007,04,17,04,11,4.40
2007,04,17,04,12,4.40
2007,04,17,04,13,4.40
2007,04,17,04,14,4.40
2007,04,17,04,15,4.40
2007,04,17,04,16,4.40
2007,04,17,04,17,4.40
2007,04,17,04,18,4.40
2007,04,17,04,19,4.40
2007,04,17,04,20,4.40
2007,04,17,04,21,4.40
2007,04,17,04,22,4.40
2007,04,17,04,23,4.40
2007,04,17,04,24,4.40
2007,04,17,04,25,4.40
2007,04,17,04,26,4.40
2007,04,17,04,27,4.40
2007,04,17,04,28,4.40
2007,04,17,04,29,4.40
2007,04,17,04,30,4.40
2007,04,17,04,31,4.40
2007,04,17,04,32,4.40
2007,04,17,04,33,4.40
2007,04,17,04,34,4.40
2007,04,17,04,35,4.40
2007,04,17,04,36,4.40
2007,04,17,04,37,4.40
2007,04,17,04,38,4.40
2007,04,17,04,39,4.40
2007,04,17,04,40,4.40
2007,04,17,04,41,4.40
2007,04,17,04,42,4.40
2007,04,17,04,43,4.40
2007,04,17,04,44,4.40
2007,04,17,04,45,4.40
2007,04,17,04,46,4.30
2007,04,17,04,47,4.30
2007,04,17,04,48,4.30
2007,04,17,04,49,4.30
2007,04,17,04,50,4.30
2007,04,17,04,51,4.30
2007,04,17,04,52,4.30
2007,04,17,04,53,4.30
2007,04,17,04,54,4.20
2007,04,17,04,55,4.20
2007,04,17,04,56,4.20
2007,04,17,04,57,4.20
2007,04,17,04,58,4.20
2007,04,17,04,59,4.20
2007,04,17,05,00,4.20
2007,04,17,05,01,4.20
2007,04,17,05,02,4.20
2007,04,17,05,03,4.20
2007,04,17,05,04,4.20
2007,04,17,05,05,4.20
2007,04,17,05,06,4.20
2007,04,17,05,07,4.20
2007,04,17,05,08,4.20
2007,04,17,05,09,4.20
2007,04,17,05,10,4.10
2007,04,17,05,11,4.20
2007,04,17,05,12,4.10
2007,04,17,05,13,4.10
2007,04,17,05,14,4.10
2007,04,17,05,15,4.10
2007,04,17,05,16,4.10
2007,04,17,05,17,4.10
2007,04,17,05,18,4.10
2007,04,17,05,19,4.00
2007,04,17,05,20,4.00
2007,04,17,05,21,4.00
2007,04,17,05,22,4.00
2007,04,17,05,23,4.00
2007,04,17,05,24,4.00
2007,04,17,05,25,4.00
2007,04,17,05,26,4.00
2007,04,17,05,27,4.00
2007,04,17,05,28,4.00
2007,04,17,05,29,4.00
2007,04,17,05,30,4.00
2007,04,17,05,31,4.00
2007,04,17,05,32,4.00
2007,04,17,05,33,3.90
2007,04,17,05,34,3.90
2007,04,17,05,35,3.90
2007,04,17,05,36,3.90
2007,04,17,05,37,3.90
2007,04,17,05,38,3.90
2007,04,17,05,39,3.90
2007,04,17,05,40,3.90
2007,04,17,05,41,3.90
2007,04,17,05,42,3.90
2007,04,17,05,43,3.90
2007,04,17,05,44,3.90
2007,04,17,05,45,3.90
2007,04,17,05,46,3.90
2007,04,17,05,48,3.90
2007,04,17,05,49,3.90
2007,04,17,05,50,3.90
2007,04,17,05,51,3.90
2007,04,17,05,52,3.90
2007,04,17,05,53,3.90
2007,04,17,05,54,3.90
2007,04,17,05,55,3.90
2007,04,17,05,56,3.90
2007,04,17,05,57,3.90
2007,04,17,05,58,3.80
2007,04,17,05,59,3.80
2007,04,17,06,00,3.80
2007,04,17,06,01,3.80
2007,04,17,06,02,3.80
2007,04,17,06,03,3.80
2007,04,17,06,04,3.80
2007,04,17,06,05,3.80
2007,04,17,06,06,3.80
2007,04,17,06,07,3.80
2007,04,17,06,08,3.80
2007,04,17,06,09,3.80
2007,04,17,06,10,3.80
2007,04,17,06,11,3.80
2007,04,17,06,12,3.80
2007,04,17,06,13,3.80
2007,04,17,06,14,3.80
2007,04,17,06,15,3.80
2007,04,17,06,16,3.80
2007,04,17,06,17,3.80
2007,04,17,06,18,3.80
2007,04,17,06,19,3.80
2007,04,17,06,20,3.80
2007,04,17,06,21,3.80
2007,04,17,06,22,3.80
2007,04,17,06,23,3.80
2007,04,17,06,24,3.80
2007,04,17,06,25,3.80
2007,04,17,06,26,3.80
2007,04,17,06,27,3.80
2007,04,17,06,28,3.80
2007,04,17,06,29,3.80
2007,04,17,06,30,3.80
2007,04,17,06,31,3.80
2007,04,17,06,32,3.80
2007,04,17,06,33,3.80
2007,04,17,06,34,3.80
2007,04,17,06,35,3.80
2007,04,17,06,36,3.80
2007,04,17,06,37,3.80
2007,04,17,06,38,3.80
2007,04,17,06,39,3.80
2007,04,17,06,40,3.80
2007,04,17,06,41,3.80
2007,04,17,06,42,3.80
2007,04,17,06,43,3.80
2007,04,17,06,44,3.80
2007,04,17,06,45,3.80
2007,04,17,06,46,3.80
2007,04,17,06,47,3.80
2007,04,17,06,48,3.80
2007,04,17,06,49,3.80
2007,04,17,06,50,3.80
2007,04,17,06,51,3.80
2007,04,17,06,52,3.80
2007,04,17,06,53,3.80
2007,04,17,06,54,3.80
2007,04,17,06,55,3.80
2007,04,17,06,56,3.80
2007,04,17,06,57,3.80
2007,04,17,06,58,3.90
2007,04,17,06,59,3.90
2007,04,17,07,00,3.90
2007,04,17,07,01,3.90
2007,04,17,07,02,3.90
2007,04,17,07,03,3.90
2007,04,17,07,04,3.90
2007,04,17,07,05,3.90
2007,04,17,07,06,3.90
2007,04,17,07,07,3.90
2007,04,17,07,08,3.90
2007,04,17,07,09,3.90
2007,04,17,07,10,3.90
2007,04,17,07,11,3.90
2007,04,17,07,12,3.90
2007,04,17,07,13,3.90
2007,04,17,07,14,3.90
2007,04,17,07,15,3.90
2007,04,17,07,16,3.90
2007,04,17,07,17,3.90
2007,04,17,07,18,4.00
2007,04,17,07,19,4.00
2007,04,17,07,20,4.00
2007,04,17,07,21,4.00
2007,04,17,07,22,4.00
2007,04,17,07,23,4.00
2007,04,17,07,24,4.00
2007,04,17,07,25,4.10
2007,04,17,07,26,4.10
2007,04,17,07,27,4.10
2007,04,17,07,28,4.10
2007,04,17,07,29,4.10
2007,04,17,07,30,4.20
2007,04,17,07,31,4.20
2007,04,17,07,32,4.20
2007,04,17,07,33,4.20
2007,04,17,07,34,4.20
2007,04,17,07,35,4.20
2007,04,17,07,36,4.20
2007,04,17,07,37,4.20
2007,04,17,07,38,4.20
2007,04,17,07,39,4.20
2007,04,17,07,40,4.20
2007,04,17,07,41,4.20
2007,04,17,07,42,4.20
2007,04,17,07,43,4.20
2007,04,17,07,44,4.20
2007,04,17,07,45,4.20
2007,04,17,07,46,4.20
2007,04,17,07,47,4.20
2007,04,17,07,48,4.20
2007,04,17,07,49,4.20
2007,04,17,07,50,4.20
2007,04,17,07,51,4.20
2007,04,17,07,52,4.20
2007,04,17,07,53,4.10
2007,04,17,07,54,4.10
2007,04,17,07,55,4.10
2007,04,17,07,56,4.10
2007,04,17,07,57,4.10
2007,04,17,07,58,4.10
2007,04,17,07,59,4.10
2007,04,17,08,00,4.10
2007,04,17,08,01,4.20
2007,04,17,08,02,4.10
2007,04,17,08,03,4.10
2007,04,17,08,04,4.10
2007,04,17,08,05,4.10
2007,04,17,08,06,4.10
2007,04,17,08,07,4.10
2007,04,17,08,08,4.10
2007,04,17,08,09,4.10
2007,04,17,08,10,4.20
2007,04,17,08,11,4.20
2007,04,17,08,12,4.20
2007,04,17,08,13,4.20
2007,04,17,08,14,4.20
2007,04,17,08,15,4.20
2007,04,17,08,16,4.20
2007,04,17,08,17,4.20
2007,04,17,08,18,4.20
2007,04,17,08,19,4.20
2007,04,17,08,20,4.20
2007,04,17,08,21,4.20
2007,04,17,08,22,4.20
2007,04,17,08,23,4.20
2007,04,17,08,24,4.20
2007,04,17,08,25,4.20
2007,04,17,08,26,4.20
2007,04,17,08,27,4.20
2007,04,17,08,28,4.30
2007,04,17,08,29,4.30
2007,04,17,08,30,4.30
2007,04,17,08,31,4.30
2007,04,17,08,32,4.30
2007,04,17,08,33,4.30
2007,04,17,08,34,4.30
2007,04,17,08,35,4.30
2007,04,17,08,36,4.40
2007,04,17,08,37,4.40
2007,04,17,08,38,4.40
2007,04,17,08,39,4.40
2007,04,17,08,40,4.50
2007,04,17,08,41,4.50
2007,04,17,08,42,4.50
2007,04,17,08,43,4.50
2007,04,17,08,44,4.50
2007,04,17,08,45,4.50
2007,04,17,08,46,4.50
2007,04,17,08,47,4.50
2007,04,17,08,48,4.60
2007,04,17,08,49,4.60
2007,04,17,08,50,4.60
2007,04,17,08,51,4.60
2007,04,17,08,52,4.60
2007,04,17,08,53,4.60
2007,04,17,08,54,4.60
2007,04,17,08,55,4.70
2007,04,17,08,56,4.70
2007,04,17,08,57,4.70
2007,04,17,08,58,4.80
2007,04,17,08,59,4.80
2007,04,17,09,00,4.80
2007,04,17,09,01,4.80
2007,04,17,09,02,4.80
2007,04,17,09,03,4.80
2007,04,17,09,04,4.90
2007,04,17,09,05,4.90
2007,04,17,09,06,4.90
2007,04,17,09,07,4.90
2007,04,17,09,08,4.90
2007,04,17,09,09,4.90
2007,04,17,09,10,4.90
2007,04,17,09,11,4.90
2007,04,17,09,12,5.10
2007,04,17,09,13,5.10
2007,04,17,09,14,5.10
2007,04,17,09,15,5.10
2007,04,17,09,16,5.20
2007,04,17,09,17,5.20
2007,04,17,09,18,5.30
2007,04,17,09,19,5.30
2007,04,17,09,20,5.30
2007,04,17,09,21,5.30
2007,04,17,09,22,5.40
2007,04,17,09,23,5.40
2007,04,17,09,24,5.50
2007,04,17,09,25,5.50
2007,04,17,09,26,5.50
2007,04,17,09,27,5.60
2007,04,17,09,28,5.60
2007,04,17,09,29,5.70
2007,04,17,09,30,5.70
2007,04,17,09,31,5.70
2007,04,17,09,32,5.70
2007,04,17,09,33,5.80
2007,04,17,09,34,5.80
2007,04,17,09,35,5.90
2007,04,17,09,36,5.90
2007,04,17,09,37,5.90
2007,04,17,09,38,5.90
2007,04,17,09,39,5.90
2007,04,17,09,40,5.80
2007,04,17,09,41,5.90
2007,04,17,09,42,5.90
2007,04,17,09,43,5.90
2007,04,17,09,45,6.00
2007,04,17,09,46,6.00
2007,04,17,09,47,6.00
2007,04,17,09,48,6.00
2007,04,17,09,49,6.10
2007,04,17,09,50,6.10
2007,04,17,09,51,6.10
2007,04,17,09,52,6.20
2007,04,17,09,53,6.20
2007,04,17,09,54,6.20
2007,04,17,09,55,6.20
2007,04,17,09,56,6.20
2007,04,17,09,57,6.20
2007,04,17,09,58,6.20
2007,04,17,09,59,6.20
2007,04,17,10,00,6.20
2007,04,17,10,02,6.20
2007,04,17,10,03,6.20
2007,04,17,10,04,6.20
2007,04,17,10,05,6.20
2007,04,17,10,06,6.20
2007,04,17,10,07,6.20
2007,04,17,10,08,6.20
2007,04,17,10,09,6.30
2007,04,17,10,10,6.30
2007,04,17,10,11,6.30
2007,04,17,10,12,6.40
2007,04,17,10,13,6.40
2007,04,17,10,14,6.40
2007,04,17,10,15,6.30
2007,04,17,10,16,6.40
2007,04,17,10,17,6.40
2007,04,17,10,18,6.40
2007,04,17,10,19,6.40
2007,04,17,10,20,6.40
2007,04,17,10,21,6.40
2007,04,17,10,22,6.40
2007,04,17,10,23,6.40
2007,04,17,10,24,6.40
2007,04,17,10,25,6.40
2007,04,17,10,26,6.40
2007,04,17,10,27,6.60
2007,04,17,10,28,6.60
2007,04,17,10,29,6.60
2007,04,17,10,30,6.60
2007,04,17,10,31,6.60
2007,04,17,10,32,6.60
2007,04,17,10,33,6.60
2007,04,17,10,34,6.60
2007,04,17,10,35,6.60
2007,04,17,10,36,6.60
2007,04,17,10,37,6.60
2007,04,17,10,38,6.60
2007,04,17,10,39,6.60
2007,04,17,10,40,6.70
2007,04,17,10,41,6.70
2007,04,17,10,42,6.80
2007,04,17,10,43,6.80
2007,04,17,10,44,6.80
2007,04,17,10,45,6.80
2007,04,17,10,46,6.80
2007,04,17,10,47,6.80
2007,04,17,10,48,6.80
2007,04,17,10,49,6.90
2007,04,17,10,50,6.90
2007,04,17,10,51,6.90
2007,04,17,10,52,6.90
2007,04,17,10,53,6.90
2007,04,17,10,54,6.90
2007,04,17,10,55,7.00
2007,04,17,10,56,7.00
2007,04,17,10,57,7.00
2007,04,17,10,58,7.10
2007,04,17,10,59,7.10
2007,04,17,11,00,7.20
2007,04,17,11,01,7.20
2007,04,17,11,02,7.30
2007,04,17,11,03,7.30
2007,04,17,11,04,7.40
2007,04,17,11,05,7.40
2007,04,17,11,06,7.50
2007,04,17,11,07,7.60
2007,04,17,11,08,7.60
2007,04,17,11,09,7.70
2007,04,17,11,10,7.70
2007,04,17,11,11,7.70
2007,04,17,11,12,7.80
2007,04,17,11,13,7.80
2007,04,17,11,14,7.80
2007,04,17,11,15,7.80
2007,04,17,11,16,7.80
2007,04,17,11,17,7.80
2007,04,17,11,18,7.90
2007,04,17,11,19,7.90
2007,04,17,11,20,7.90
2007,04,17,11,21,7.90
2007,04,17,11,22,8.00
2007,04,17,11,23,8.00
2007,04,17,11,24,8.10
2007,04,17,11,25,8.10
2007,04,17,11,26,8.10
2007,04,17,11,27,8.10
2007,04,17,11,28,8.10
2007,04,17,11,29,8.20
2007,04,17,11,30,8.20
2007,04,17,11,31,8.30
2007,04,17,11,32,8.50
2007,04,17,11,33,8.60
2007,04,17,11,34,8.70
2007,04,17,11,35,8.80
2007,04,17,11,36,8.90
2007,04,17,11,37,9.10
2007,04,17,11,38,9.20
2007,04,17,11,39,9.20
2007,04,17,11,40,9.30
2007,04,17,11,41,9.30
2007,04,17,11,42,9.30
2007,04,17,11,43,9.30
2007,04,17,11,44,9.30
2007,04,17,11,45,9.40
2007,04,17,11,46,9.40
2007,04,17,11,47,9.50
2007,04,17,11,48,9.50
2007,04,17,11,49,9.60
2007,04,17,11,50,9.60
2007,04,17,11,51,9.70
2007,04,17,11,52,9.80
2007,04,17,11,53,9.90
2007,04,17,11,54,9.90
2007,04,17,11,55,10.10
2007,04,17,11,56,10.10
2007,04,17,11,57,10.10
2007,04,17,11,58,10.20
2007,04,17,11,59,10.20
2007,04,17,12,00,10.20
2007,04,17,12,01,10.30
2007,04,17,12,02,10.20
2007,04,17,12,03,10.10
2007,04,17,12,04,9.90
2007,04,17,12,05,9.70
2007,04,17,12,06,9.60
2007,04,17,12,07,9.50
2007,04,17,12,08,9.30
2007,04,17,12,09,9.20
2007,04,17,12,10,9.20
2007,04,17,12,11,9.20
2007,04,17,12,12,9.20
2007,04,17,12,13,9.20
2007,04,17,12,14,9.30
2007,04,17,12,15,9.40
2007,04,17,12,16,9.40
2007,04,17,12,17,9.50
2007,04,17,12,18,9.50
2007,04,17,12,19,9.60
2007,04,17,12,20,9.60
2007,04,17,12,21,9.60
2007,04,17,12,22,9.70
2007,04,17,12,23,9.70
2007,04,17,12,24,9.70
2007,04,17,12,25,9.70
2007,04,17,12,26,9.70
2007,04,17,12,27,9.80
2007,04,17,12,28,9.70
2007,04,17,12,29,9.60
2007,04,17,12,30,9.40
2007,04,17,12,31,9.30
2007,04,17,12,32,9.20
2007,04,17,12,33,9.10
2007,04,17,12,34,9.00
2007,04,17,12,35,9.00
2007,04,17,12,36,9.00
2007,04,17,12,37,8.90
2007,04,17,12,38,8.90
2007,04,17,12,39,8.90
2007,04,17,12,40,8.90
2007,04,17,12,41,9.00
2007,04,17,12,42,9.10
2007,04,17,12,43,9.20
2007,04,17,12,44,9.20
2007,04,17,12,45,9.40
2007,04,17,12,46,9.50
2007,04,17,12,47,9.70
2007,04,17,12,48,9.70
2007,04,17,12,49,9.90
2007,04,17,12,50,9.90
2007,04,17,12,51,9.90
2007,04,17,12,52,10.10
2007,04,17,12,53,10.10
2007,04,17,12,54,10.10
2007,04,17,12,55,10.10
2007,04,17,12,56,10.10
2007,04,17,12,57,10.10
2007,04,17,12,58,9.90
2007,04,17,12,59,9.90
2007,04,17,13,00,9.90
2007,04,17,13,01,9.90
2007,04,17,13,02,10.10
2007,04,17,13,03,10.10
2007,04,17,13,04,10.20
2007,04,17,13,05,10.30
2007,04,17,13,06,10.40
2007,04,17,13,07,10.60
2007,04,17,13,08,10.80
2007,04,17,13,09,10.90
2007,04,17,13,10,11.10
2007,04,17,13,11,11.20
2007,04,17,13,12,11.40
2007,04,17,13,13,11.60
2007,04,17,13,14,11.60
2007,04,17,13,15,11.80
2007,04,17,13,16,11.80
2007,04,17,13,17,12.00
2007,04,17,13,18,12.10
2007,04,17,13,19,12.10
2007,04,17,13,20,12.20
2007,04,17,13,21,12.30
2007,04,17,13,22,12.30
2007,04,17,13,23,12.30
2007,04,17,13,24,12.30
2007,04,17,13,25,12.30
2007,04,17,13,26,12.30
2007,04,17,13,27,12.30
2007,04,17,13,28,12.20
2007,04,17,13,29,12.20
2007,04,17,13,30,12.10
2007,04,17,13,31,12.00
2007,04,17,13,32,11.90
2007,04,17,13,33,11.80
2007,04,17,13,34,11.80
2007,04,17,13,35,11.80
2007,04,17,13,37,11.80
2007,04,17,13,38,11.80
2007,04,17,13,39,11.80
2007,04,17,13,40,11.80
2007,04,17,13,42,11.80
2007,04,17,13,43,11.80
2007,04,17,13,44,11.80
2007,04,17,13,45,11.80
2007,04,17,13,46,11.80
2007,04,17,13,47,11.90
2007,04,17,13,48,11.90
2007,04,17,13,49,12.00
2007,04,17,13,50,12.10
2007,04,17,13,51,12.10
2007,04,17,13,52,12.30
2007,04,17,13,53,12.30
2007,04,17,13,54,12.40
2007,04,17,13,55,12.60
2007,04,17,13,56,12.80
2007,04,17,13,57,12.80
2007,04,17,13,58,12.90
2007,04,17,13,59,13.00
2007,04,17,14,00,13.10
2007,04,17,14,01,13.10
2007,04,17,14,02,13.20
2007,04,17,14,03,13.20
2007,04,17,14,04,13.20
2007,04,17,14,05,13.20
2007,04,17,14,06,13.20
2007,04,17,14,07,13.10
2007,04,17,14,08,13.10
2007,04,17,14,09,13.10
2007,04,17,14,10,13.00
2007,04,17,14,11,13.00
2007,04,17,14,12,12.90
2007,04,17,14,13,12.90
2007,04,17,14,14,12.80
2007,04,17,14,15,12.80
2007,04,17,14,16,12.70
2007,04,17,14,17,12.60
2007,04,17,14,18,12.70
2007,04,17,14,19,12.70
2007,04,17,14,20,12.80
2007,04,17,14,21,12.80
2007,04,17,14,22,13.00
2007,04,17,14,23,13.10
2007,04,17,14,24,13.20
2007,04,17,14,25,13.30
2007,04,17,14,26,13.30
2007,04,17,14,27,13.50
2007,04,17,14,28,13.60
2007,04,17,14,29,13.70
2007,04,17,14,30,13.80
2007,04,17,14,31,13.90
2007,04,17,14,32,14.00
2007,04,17,14,33,14.20
2007,04,17,14,34,14.20
2007,04,17,14,35,14.20
2007,04,17,14,36,14.30
2007,04,17,14,37,14.30
2007,04,17,14,38,14.20
2007,04,17,14,39,14.10
2007,04,17,14,40,14.00
2007,04,17,14,41,13.80
2007,04,17,14,42,13.70
2007,04,17,14,43,13.50
2007,04,17,14,44,13.30
2007,04,17,14,45,13.20
2007,04,17,14,46,13.00
2007,04,17,14,47,12.90
2007,04,17,14,48,12.80
2007,04,17,14,49,12.80
2007,04,17,14,50,12.70
2007,04,17,14,51,12.70
2007,04,17,14,52,12.70
2007,04,17,14,53,12.60
2007,04,17,14,54,12.50
2007,04,17,14,55,12.50
2007,04,17,14,56,12.40
2007,04,17,14,57,12.40
2007,04,17,14,58,12.40
2007,04,17,14,59,12.30
2007,04,17,15,00,12.30
2007,04,17,15,01,12.30
2007,04,17,15,02,12.30
2007,04,17,15,03,12.40
2007,04,17,15,04,12.40
2007,04,17,15,05,12.40
2007,04,17,15,06,12.40
2007,04,17,15,07,12.50
2007,04,17,15,08,12.60
2007,04,17,15,09,12.60
2007,04,17,15,10,12.70
2007,04,17,15,11,12.80
2007,04,17,15,12,12.80
2007,04,17,15,13,12.90
2007,04,17,15,14,12.90
2007,04,17,15,15,12.90
2007,04,17,15,16,12.80
2007,04,17,15,17,12.60
2007,04,17,15,18,12.50
2007,04,17,15,19,12.30
2007,04,17,15,20,12.10
2007,04,17,15,21,11.90
2007,04,17,15,22,11.80
2007,04,17,15,23,11.70
2007,04,17,15,24,11.60
2007,04,17,15,25,11.60
2007,04,17,15,26,11.40
2007,04,17,15,27,11.40
2007,04,17,15,28,11.30
2007,04,17,15,29,11.20
2007,04,17,15,30,11.10
2007,04,17,15,31,11.10
2007,04,17,15,32,10.90
2007,04,17,15,33,10.90
2007,04,17,15,34,10.90
2007,04,17,15,35,10.90
2007,04,17,15,36,10.90
2007,04,17,15,37,10.90
2007,04,17,15,38,10.90
2007,04,17,15,39,10.90
2007,04,17,15,40,10.90
2007,04,17,15,41,10.90
2007,04,17,15,42,10.90
2007,04,17,15,43,10.90
2007,04,17,15,44,10.90
2007,04,17,15,45,10.80
2007,04,17,15,46,10.60
2007,04,17,15,47,10.40
2007,04,17,15,48,10.30
2007,04,17,15,49,10.20
2007,04,17,15,50,10.10
2007,04,17,15,51,10.10
2007,04,17,15,52,10.10
2007,04,17,15,53,9.90
2007,04,17,15,54,9.90
2007,04,17,15,55,9.90
2007,04,17,15,56,10.10
2007,04,17,15,57,10.10
2007,04,17,15,58,10.10
2007,04,17,15,59,10.20
2007,04,17,16,00,10.20
2007,04,17,16,06,10.90
2007,04,17,16,07,11.10
2007,04,17,16,08,11.20
2007,04,17,16,09,11.40
2007,04,17,16,10,11.40
2007,04,17,16,11,11.60
2007,04,17,16,12,11.80
2007,04,17,16,13,11.80
2007,04,17,16,14,12.00
2007,04,17,16,15,12.20
2007,04,17,16,16,12.30
2007,04,17,16,17,12.30
2007,04,17,16,18,12.20
2007,04,17,16,19,12.20
2007,04,17,16,20,12.10
2007,04,17,16,21,12.20
2007,04,17,16,22,12.30
2007,04,17,16,23,12.50
2007,04,17,16,24,12.60
2007,04,17,16,25,12.80
2007,04,17,16,26,12.80
2007,04,17,16,27,12.80
2007,04,17,16,28,12.60
2007,04,17,16,29,12.50
2007,04,17,16,30,12.50
2007,04,17,16,31,12.60
2007,04,17,16,32,12.80
2007,04,17,16,33,12.90
2007,04,17,16,34,13.10
2007,04,17,16,35,13.30
2007,04,17,16,36,13.50
2007,04,17,16,37,13.60
2007,04,17,16,38,13.70
2007,04,17,16,39,13.80
2007,04,17,16,40,13.90
2007,04,17,16,41,14.00
2007,04,17,16,42,14.10
2007,04,17,16,43,14.20
2007,04,17,16,44,14.30
2007,04,17,16,45,14.40
2007,04,17,16,46,14.40
2007,04,17,16,47,14.40
2007,04,17,16,48,14.50
2007,04,17,16,49,14.50
2007,04,17,16,50,14.50
2007,04,17,16,51,14.60
2007,04,17,16,52,14.50
2007,04,17,16,53,14.50
2007,04,17,16,54,14.50
2007,04,17,16,55,14.60
2007,04,17,16,56,14.60
2007,04,17,16,57,14.70
2007,04,17,16,58,14.70
2007,04,17,16,59,14.80
2007,04,17,17,00,14.70
2007,04,17,17,01,14.70
2007,04,17,17,02,14.70
2007,04,17,17,03,14.70
2007,04,17,17,04,14.70
2007,04,17,17,05,14.60
2007,04,17,17,06,14.60
2007,04,17,17,07,14.50
2007,04,17,17,08,14.40
2007,04,17,17,09,14.20
2007,04,17,17,10,14.20
2007,04,17,17,11,14.00
2007,04,17,17,12,13.80
2007,04,17,17,13,13.70
2007,04,17,17,14,13.50
2007,04,17,17,15,13.30
2007,04,17,17,16,13.20
2007,04,17,17,17,13.10
2007,04,17,17,18,12.90
2007,04,17,17,19,12.80
2007,04,17,17,20,12.80
2007,04,17,17,21,12.70
2007,04,17,17,22,12.60
2007,04,17,17,23,12.50
2007,04,17,17,24,12.40
2007,04,17,17,25,12.30
2007,04,17,17,26,12.30
2007,04,17,17,27,12.20
2007,04,17,17,28,12.10
2007,04,17,17,29,12.00
2007,04,17,17,30,12.00
2007,04,17,17,31,11.90
2007,04,17,17,32,11.80
2007,04,17,17,33,11.80
2007,04,17,17,34,11.80
2007,04,17,17,35,11.70
2007,04,17,17,36,11.70
2007,04,17,17,37,11.70
2007,04,17,17,38,11.60
2007,04,17,17,39,11.60
2007,04,17,17,40,11.60
2007,04,17,17,42,11.40
2007,04,17,17,43,11.40
2007,04,17,17,44,11.40
2007,04,17,17,45,11.30
2007,04,17,17,46,11.20
2007,04,17,17,47,11.10
2007,04,17,17,48,11.10
2007,04,17,17,49,11.10
2007,04,17,17,50,10.90
2007,04,17,17,51,10.90
2007,04,17,17,52,10.90
2007,04,17,17,53,10.90
2007,04,17,17,54,10.80
2007,04,17,17,55,10.80
2007,04,17,17,56,10.80
2007,04,17,17,57,10.80
2007,04,17,17,58,10.70
2007,04,17,17,59,10.70
2007,04,17,18,00,10.70
2007,04,17,18,01,10.70
2007,04,17,18,02,10.60
2007,04,17,18,03,10.60